Time,TemperatureF,DewpointF,PressureIn,WindDirection,WindDirectionDegrees,WindSpeedMPH,WindSpeedGustMPH,Humidity,HourlyPrecipIn,Conditions,Clouds,dailyrainin,SoftwareType,DateUTC
2013-06-15 00:01:00,64.1,57.8,30.00,SSE,159,0.0,0.0,80,0.00,,,0.00,Wunderground v.1.15,2013-06-15 04:01:00,
2013-06-15 00:02:00,64.1,57.8,30.00,ESE,121,0.0,0.0,80,0.00,,,0.00,Wunderground v.1.15,2013-06-15 04:02:00,
2013-06-15 00:05:00,64.1,57.8,30.00,ESE,122,0.0,0.0,80,0.00,,,0.00,Wunderground v.1.15,2013-06-15 04:05:00,
2013-06-15 00:06:00,64.1,57.8,30.00,ESE,121,0.0,0.0,80,0.00,,,0.00,Wunderground v.1.15,2013-06-15 04:06:00,
2013-06-15 00:08:00,64.0,58.1,30.01,ESE,121,0.0,0.0,81,0.00,,,0.00,Wunderground v.1.15,2013-06-15 04:08:00,
2013-06-15 00:13:00,63.9,57.6,30.01,ESE,121,0.0,0.0,80,0.00,,,0.00,Wunderground v.1.15,2013-06-15 04:13:00,
2013-06-15 00:18:00,63.7,56.7,30.01,ESE,121,0.0,0.0,78,0.00,,,0.00,Wunderground v.1.15,2013-06-15 04:18:00,
2013-06-15 00:23:00,63.6,56.3,30.01,ESE,121,0.0,0.0,77,0.00,,,0.00,Wunderground v.1.15,2013-06-15 04:23:00,
2013-06-15 00:29:00,63.6,55.9,30.00,ESE,121,0.0,0.0,76,0.00,,,0.00,Wunderground v.1.15,2013-06-15 04:29:00,
2013-06-15 00:34:00,63.8,55.7,30.01,ENE,71,0.0,0.0,75,0.00,,,0.00,Wunderground v.1.15,2013-06-15 04:34:00,
2013-06-15 00:39:00,64.1,54.9,30.01,ENE,76,0.0,0.0,72,0.00,,,0.00,Wunderground v.1.15,2013-06-15 04:39:00,
2013-06-15 00:44:00,64.5,55.7,30.01,ENE,76,0.0,0.0,73,0.00,,,0.00,Wunderground v.1.15,2013-06-15 04:44:00,
2013-06-15 00:49:00,64.5,55.3,30.01,ENE,76,0.0,0.0,72,0.00,,,0.00,Wunderground v.1.15,2013-06-15 04:49:00,
2013-06-15 00:55:00,64.5,54.5,30.01,East,83,0.0,0.0,70,0.00,,,0.00,Wunderground v.1.15,2013-06-15 04:55:00,
2013-06-15 01:00:00,64.7,54.3,30.01,SE,125,0.0,0.0,69,0.00,,,0.00,Wunderground v.1.15,2013-06-15 05:00:00,
2013-06-15 01:05:00,65.0,54.2,30.02,SE,125,0.0,0.0,68,0.00,,,0.00,Wunderground v.1.15,2013-06-15 05:05:00,
2013-06-15 01:10:00,65.1,54.7,30.02,SE,125,0.0,0.0,69,0.00,,,0.00,Wunderground v.1.15,2013-06-15 05:10:00,
2013-06-15 01:15:00,65.1,54.3,30.02,SE,126,0.0,0.0,68,0.00,,,0.00,Wunderground v.1.15,2013-06-15 05:15:00,
2013-06-15 01:21:00,65.0,54.2,30.02,SE,132,0.0,0.0,68,0.00,,,0.00,Wunderground v.1.15,2013-06-15 05:21:00,
2013-06-15 01:26:00,65.0,55.0,30.02,SE,132,0.0,0.0,70,0.00,,,0.00,Wunderground v.1.15,2013-06-15 05:26:00,
2013-06-15 01:31:00,64.8,54.8,30.02,SE,132,0.0,0.0,70,0.00,,,0.00,Wunderground v.1.15,2013-06-15 05:31:00,
2013-06-15 01:36:00,64.6,54.6,30.02,SE,132,0.0,0.0,70,0.00,,,0.00,Wunderground v.1.15,2013-06-15 05:36:00,
2013-06-15 01:41:00,64.6,54.6,30.02,SE,133,0.0,0.0,70,0.00,,,0.00,Wunderground v.1.15,2013-06-15 05:41:00,
2013-06-15 01:47:00,64.7,54.3,30.02,SE,133,0.0,4.0,69,0.00,,,0.00,Wunderground v.1.15,2013-06-15 05:47:00,
2013-06-15 01:52:00,64.7,54.3,30.02,SE,133,0.0,0.0,69,0.00,,,0.00,Wunderground v.1.15,2013-06-15 05:52:00,
2013-06-15 01:57:00,64.6,54.2,30.02,SE,133,0.0,0.0,69,0.00,,,0.00,Wunderground v.1.15,2013-06-15 05:57:00,
2013-06-15 02:02:00,64.4,54.4,30.02,SE,133,0.0,0.0,70,0.00,,,0.00,Wunderground v.1.15,2013-06-15 06:02:00,
2013-06-15 02:07:00,64.1,54.5,30.02,SE,133,0.0,1.0,71,0.00,,,0.00,Wunderground v.1.15,2013-06-15 06:07:00,
2013-06-15 02:12:00,63.9,54.3,30.03,SE,133,0.0,0.0,71,0.00,,,0.00,Wunderground v.1.15,2013-06-15 06:12:00,
2013-06-15 02:17:00,63.6,54.0,30.03,SE,132,0.0,1.0,71,0.00,,,0.00,Wunderground v.1.15,2013-06-15 06:17:00,
2013-06-15 02:22:00,63.4,54.2,30.03,SE,132,0.0,0.0,72,0.00,,,0.00,Wunderground v.1.15,2013-06-15 06:22:00,
2013-06-15 02:27:00,63.2,54.0,30.03,SE,132,0.0,0.0,72,0.00,,,0.00,Wunderground v.1.15,2013-06-15 06:27:00,
2013-06-15 02:32:00,62.9,54.5,30.03,SE,132,2.0,2.0,74,0.00,,,0.00,Wunderground v.1.15,2013-06-15 06:32:00,
2013-06-15 02:37:00,62.6,54.6,30.03,SE,132,0.0,4.0,75,0.00,,,0.00,Wunderground v.1.15,2013-06-15 06:37:00,
2013-06-15 02:42:00,62.3,55.0,30.03,SE,133,0.0,0.0,77,0.00,,,0.00,Wunderground v.1.15,2013-06-15 06:42:00,
2013-06-15 02:47:00,62.0,54.7,30.03,SE,133,0.0,0.0,77,0.00,,,0.00,Wunderground v.1.15,2013-06-15 06:47:00,
2013-06-15 02:52:00,61.7,55.5,30.03,SE,133,0.0,0.0,80,0.00,,,0.00,Wunderground v.1.15,2013-06-15 06:52:00,
2013-06-15 02:57:00,61.5,55.6,30.02,SE,133,0.0,1.0,81,0.00,,,0.00,Wunderground v.1.15,2013-06-15 06:57:00,
2013-06-15 03:02:00,61.0,54.4,30.02,SE,133,0.0,0.0,79,0.00,,,0.00,Wunderground v.1.15,2013-06-15 07:02:00,
2013-06-15 03:07:00,60.9,54.0,30.02,SE,133,0.0,4.0,78,0.00,,,0.00,Wunderground v.1.15,2013-06-15 07:07:00,
2013-06-15 03:12:00,60.9,54.0,30.02,SE,133,0.0,0.0,78,0.00,,,0.00,Wunderground v.1.15,2013-06-15 07:12:00,
2013-06-15 03:17:00,61.1,54.2,30.02,SE,133,0.0,0.0,78,0.00,,,0.00,Wunderground v.1.15,2013-06-15 07:17:00,
2013-06-15 03:22:00,61.4,54.1,30.02,East,85,0.0,0.0,77,0.00,,,0.00,Wunderground v.1.15,2013-06-15 07:22:00,
2013-06-15 03:27:00,61.7,54.1,30.01,East,94,0.0,0.0,76,0.00,,,0.00,Wunderground v.1.15,2013-06-15 07:27:00,
2013-06-15 03:32:00,62.0,54.0,30.01,East,94,0.0,1.0,75,0.00,,,0.00,Wunderground v.1.15,2013-06-15 07:32:00,
2013-06-15 03:37:00,62.1,53.7,30.01,East,94,0.0,1.0,74,0.00,,,0.00,Wunderground v.1.15,2013-06-15 07:37:00,
2013-06-15 03:42:00,62.2,54.2,30.01,East,94,0.0,0.0,75,0.00,,,0.00,Wunderground v.1.15,2013-06-15 07:42:00,
2013-06-15 03:47:00,62.2,54.2,30.01,East,94,0.0,0.0,75,0.00,,,0.00,Wunderground v.1.15,2013-06-15 07:47:00,
2013-06-15 03:52:00,62.1,54.8,30.01,East,94,0.0,0.0,77,0.00,,,0.00,Wunderground v.1.15,2013-06-15 07:52:00,
2013-06-15 03:57:00,61.8,55.2,30.01,East,94,0.0,1.0,79,0.00,,,0.00,Wunderground v.1.15,2013-06-15 07:57:00,
2013-06-15 04:02:00,61.4,55.2,30.01,East,94,0.0,0.0,80,0.00,,,0.00,Wunderground v.1.15,2013-06-15 08:02:00,
2013-06-15 04:07:00,61.0,55.5,30.01,East,94,0.0,1.0,82,0.00,,,0.00,Wunderground v.1.15,2013-06-15 08:07:00,
2013-06-15 04:12:00,60.7,55.2,30.01,East,94,0.0,0.0,82,0.00,,,0.00,Wunderground v.1.15,2013-06-15 08:12:00,
2013-06-15 04:17:00,60.4,55.2,30.01,East,94,0.0,0.0,83,0.00,,,0.00,Wunderground v.1.15,2013-06-15 08:17:00,
2013-06-15 04:22:00,60.1,55.2,30.01,East,94,0.0,0.0,84,0.00,,,0.00,Wunderground v.1.15,2013-06-15 08:22:00,
2013-06-15 04:27:00,59.8,55.0,30.01,East,94,0.0,1.0,84,0.00,,,0.00,Wunderground v.1.15,2013-06-15 08:27:00,
2013-06-15 04:32:00,59.3,54.5,30.02,East,94,0.0,0.0,84,0.00,,,0.00,Wunderground v.1.15,2013-06-15 08:32:00,
2013-06-15 04:37:00,59.0,54.5,30.02,East,94,0.0,0.0,85,0.00,,,0.00,Wunderground v.1.15,2013-06-15 08:37:00,
2013-06-15 04:42:00,59.0,54.8,30.02,East,94,0.0,0.0,86,0.00,,,0.00,Wunderground v.1.15,2013-06-15 08:42:00,
2013-06-15 04:47:00,59.0,54.8,30.02,East,94,0.0,1.0,86,0.00,,,0.00,Wunderground v.1.15,2013-06-15 08:47:00,
2013-06-15 04:52:00,58.7,54.5,30.02,East,94,0.0,0.0,86,0.00,,,0.00,Wunderground v.1.15,2013-06-15 08:52:00,
2013-06-15 04:57:00,58.4,53.9,30.02,East,94,0.0,0.0,85,0.00,,,0.00,Wunderground v.1.15,2013-06-15 08:57:00,
2013-06-15 05:02:00,58.0,53.2,30.03,East,94,0.0,0.0,84,0.00,,,0.00,Wunderground v.1.15,2013-06-15 09:02:00,
2013-06-15 05:07:00,58.0,53.5,30.03,East,94,0.0,0.0,85,0.00,,,0.00,Wunderground v.1.15,2013-06-15 09:07:00,
2013-06-15 05:12:00,57.7,52.6,30.04,East,94,0.0,0.0,83,0.00,,,0.00,Wunderground v.1.15,2013-06-15 09:12:00,
2013-06-15 05:17:00,58.1,53.6,30.04,East,94,0.0,0.0,85,0.00,,,0.00,Wunderground v.1.15,2013-06-15 09:17:00,
2013-06-15 05:22:00,58.5,54.6,30.04,East,93,0.0,0.0,87,0.00,,,0.00,Wunderground v.1.15,2013-06-15 09:22:00,
2013-06-15 05:27:00,58.4,54.2,30.04,East,93,0.0,1.0,86,0.00,,,0.00,Wunderground v.1.15,2013-06-15 09:27:00,
2013-06-15 05:32:00,58.5,54.6,30.05,SE,139,0.0,0.0,87,0.00,,,0.00,Wunderground v.1.15,2013-06-15 09:32:00,
2013-06-15 05:37:00,58.5,55.0,30.05,SE,142,0.0,1.0,88,0.00,,,0.00,Wunderground v.1.15,2013-06-15 09:37:00,
2013-06-15 05:42:00,58.4,54.9,30.05,SE,142,0.0,0.0,88,0.00,,,0.00,Wunderground v.1.15,2013-06-15 09:42:00,
2013-06-15 05:47:00,58.5,55.0,30.05,SE,142,0.0,0.0,88,0.00,,,0.00,Wunderground v.1.15,2013-06-15 09:47:00,
2013-06-15 05:52:00,58.4,54.9,30.06,SE,138,0.0,0.0,88,0.00,,,0.00,Wunderground v.1.15,2013-06-15 09:52:00,
2013-06-15 05:57:00,58.2,55.0,30.06,ENE,78,0.0,0.0,89,0.00,,,0.00,Wunderground v.1.15,2013-06-15 09:57:00,
2013-06-15 06:02:00,58.1,54.9,30.07,ENE,78,0.0,0.0,89,0.00,,,0.00,Wunderground v.1.15,2013-06-15 10:02:00,
2013-06-15 06:07:00,58.2,55.3,30.07,ENE,78,0.0,1.0,90,0.00,,,0.00,Wunderground v.1.15,2013-06-15 10:07:00,
2013-06-15 06:12:00,58.2,55.3,30.07,ENE,78,0.0,0.0,90,0.00,,,0.00,Wunderground v.1.15,2013-06-15 10:12:00,
2013-06-15 06:17:00,58.2,55.3,30.08,ENE,78,0.0,0.0,90,0.00,,,0.00,Wunderground v.1.15,2013-06-15 10:17:00,
2013-06-15 06:22:00,58.1,55.2,30.08,ENE,78,0.0,0.0,90,0.00,,,0.00,Wunderground v.1.15,2013-06-15 10:22:00,
2013-06-15 06:27:00,58.1,55.5,30.07,East,86,0.0,0.0,91,0.00,,,0.00,Wunderground v.1.15,2013-06-15 10:27:00,
2013-06-15 06:32:00,58.1,55.5,30.08,SW,217,0.0,0.0,91,0.00,,,0.00,Wunderground v.1.15,2013-06-15 10:32:00,
2013-06-15 06:37:00,58.0,55.4,30.08,SW,217,0.0,0.0,91,0.00,,,0.00,Wunderground v.1.15,2013-06-15 10:37:00,
2013-06-15 06:42:00,58.1,55.5,30.09,SW,217,0.0,0.0,91,0.00,,,0.00,Wunderground v.1.15,2013-06-15 10:42:00,
2013-06-15 06:47:00,58.3,55.7,30.08,SW,217,0.0,0.0,91,0.00,,,0.00,Wunderground v.1.15,2013-06-15 10:47:00,
2013-06-15 06:52:00,58.6,56.3,30.08,West,278,0.0,0.0,92,0.00,,,0.00,Wunderground v.1.15,2013-06-15 10:52:00,
2013-06-15 06:57:00,58.9,56.6,30.08,ENE,74,0.0,0.0,92,0.00,,,0.00,Wunderground v.1.15,2013-06-15 10:57:00,
2013-06-15 07:02:00,59.0,56.7,30.08,ENE,75,0.0,0.0,92,0.00,,,0.00,Wunderground v.1.15,2013-06-15 11:02:00,
2013-06-15 07:07:00,59.0,56.4,30.08,SW,216,0.0,0.0,91,0.00,,,0.00,Wunderground v.1.15,2013-06-15 11:07:00,
2013-06-15 07:12:00,59.0,56.7,30.08,South,180,0.0,0.0,92,0.00,,,0.00,Wunderground v.1.15,2013-06-15 11:12:00,
2013-06-15 07:17:00,59.8,57.2,30.08,South,178,0.0,0.0,91,0.00,,,0.00,Wunderground v.1.15,2013-06-15 11:17:00,
2013-06-15 07:22:00,60.6,58.0,30.08,East,99,0.0,0.0,91,0.00,,,0.00,Wunderground v.1.15,2013-06-15 11:22:00,
2013-06-15 07:27:00,61.2,57.9,30.08,East,99,0.0,0.0,89,0.00,,,0.00,Wunderground v.1.15,2013-06-15 11:27:00,
2013-06-15 07:32:00,61.8,58.2,30.08,East,97,0.0,0.0,88,0.00,,,0.00,Wunderground v.1.15,2013-06-15 11:32:00,
2013-06-15 07:37:00,62.2,58.0,30.08,East,97,0.0,1.0,86,0.00,,,0.00,Wunderground v.1.15,2013-06-15 11:37:00,
2013-06-15 07:42:00,62.4,57.8,30.08,East,97,0.0,0.0,85,0.00,,,0.00,Wunderground v.1.15,2013-06-15 11:42:00,
2013-06-15 07:47:00,62.9,58.0,30.08,East,88,0.0,1.0,84,0.00,,,0.00,Wunderground v.1.15,2013-06-15 11:47:00,
2013-06-15 07:52:00,63.0,57.4,30.08,East,88,0.0,0.0,82,0.00,,,0.00,Wunderground v.1.15,2013-06-15 11:52:00,
2013-06-15 07:57:00,63.2,57.9,30.09,East,88,0.0,0.0,83,0.00,,,0.00,Wunderground v.1.15,2013-06-15 11:57:00,
2013-06-15 08:02:00,63.7,58.1,30.08,East,88,0.0,0.0,82,0.00,,,0.00,Wunderground v.1.15,2013-06-15 12:02:00,
2013-06-15 08:07:00,64.3,58.7,30.09,East,91,0.0,1.0,82,0.00,,,0.00,Wunderground v.1.15,2013-06-15 12:07:00,
2013-06-15 08:12:00,65.0,59.0,30.09,NNW,340,1.0,1.0,81,0.00,,,0.00,Wunderground v.1.15,2013-06-15 12:12:00,
2013-06-15 08:17:00,65.8,59.5,30.09,WNW,299,0.0,2.0,80,0.00,,,0.00,Wunderground v.1.15,2013-06-15 12:17:00,
2013-06-15 08:22:00,66.5,59.1,30.10,NW,304,0.0,1.0,77,0.00,,,0.00,Wunderground v.1.15,2013-06-15 12:22:00,
2013-06-15 08:27:00,67.1,58.9,30.10,West,273,0.0,1.0,75,0.00,,,0.00,Wunderground v.1.15,2013-06-15 12:27:00,
2013-06-15 08:32:00,67.6,59.0,30.10,West,271,0.0,1.0,74,0.00,,,0.00,Wunderground v.1.15,2013-06-15 12:32:00,
2013-06-15 08:37:00,67.9,58.9,30.10,West,273,0.0,1.0,73,0.00,,,0.00,Wunderground v.1.15,2013-06-15 12:37:00,
2013-06-15 08:42:00,68.1,59.5,30.10,SSE,163,0.0,0.0,74,0.00,,,0.00,Wunderground v.1.15,2013-06-15 12:42:00,
2013-06-15 08:47:00,68.2,59.2,30.10,SSE,159,0.0,1.0,73,0.00,,,0.00,Wunderground v.1.15,2013-06-15 12:47:00,
2013-06-15 08:52:00,68.5,59.9,30.10,SSE,157,0.0,0.0,74,0.00,,,0.00,Wunderground v.1.15,2013-06-15 12:52:00,
2013-06-15 08:57:00,69.0,60.0,30.10,SSE,156,0.0,1.0,73,0.00,,,0.00,Wunderground v.1.15,2013-06-15 12:57:00,
2013-06-15 09:02:00,69.8,61.1,30.10,SSE,157,0.0,0.0,74,0.00,,,0.00,Wunderground v.1.15,2013-06-15 13:02:00,
2013-06-15 09:07:00,70.5,59.8,30.10,SSE,151,0.0,1.0,69,0.00,,,0.00,Wunderground v.1.15,2013-06-15 13:07:00,
2013-06-15 09:12:00,71.0,61.1,30.10,East,85,1.0,1.0,71,0.00,,,0.00,Wunderground v.1.15,2013-06-15 13:12:00,
2013-06-15 09:17:00,71.0,59.9,30.10,ENE,69,0.0,2.0,68,0.00,,,0.00,Wunderground v.1.15,2013-06-15 13:17:00,
2013-06-15 09:22:00,70.8,60.5,30.10,ENE,67,0.0,1.0,70,0.00,,,0.00,Wunderground v.1.15,2013-06-15 13:22:00,
2013-06-15 09:28:00,71.0,60.3,30.11,NNW,329,4.0,4.0,69,0.00,,,0.00,Wunderground v.1.15,2013-06-15 13:28:00,
2013-06-15 09:33:00,70.2,59.1,30.10,ENE,59,2.0,5.0,68,0.00,,,0.00,Wunderground v.1.15,2013-06-15 13:33:00,
2013-06-15 09:38:00,69.2,59.0,30.11,NE,49,0.0,5.0,70,0.00,,,0.00,Wunderground v.1.15,2013-06-15 13:38:00,
2013-06-15 09:43:00,69.2,59.4,30.11,NE,45,0.0,5.0,71,0.00,,,0.00,Wunderground v.1.15,2013-06-15 13:43:00,
2013-06-15 09:48:00,69.4,59.6,30.11,North,355,0.0,5.0,71,0.00,,,0.00,Wunderground v.1.15,2013-06-15 13:48:00,
2013-06-15 09:53:00,69.4,59.2,30.10,NE,53,0.0,5.0,70,0.00,,,0.00,Wunderground v.1.15,2013-06-15 13:53:00,
2013-06-15 09:58:00,69.8,60.4,30.10,NE,53,0.0,5.0,72,0.00,,,0.00,Wunderground v.1.15,2013-06-15 13:58:00,
2013-06-15 10:03:00,70.6,61.1,30.10,NE,52,0.0,5.0,72,0.00,,,0.00,Wunderground v.1.15,2013-06-15 14:03:00,
2013-06-15 10:08:00,70.8,60.1,30.10,NE,40,4.0,6.0,69,0.00,,,0.00,Wunderground v.1.15,2013-06-15 14:08:00,
2013-06-15 10:12:00,71.0,60.7,30.10,NNE,29,3.0,5.0,70,0.00,,,0.00,Wunderground v.1.15,2013-06-15 14:12:00,
2013-06-15 10:17:00,71.3,61.4,30.10,NE,35,1.0,5.0,71,0.00,,,0.00,Wunderground v.1.15,2013-06-15 14:17:00,
2013-06-15 10:22:00,71.6,60.9,30.10,NE,55,2.0,6.0,69,0.00,,,0.00,Wunderground v.1.15,2013-06-15 14:22:00,
2013-06-15 10:27:00,71.6,60.1,30.09,NE,55,4.0,6.0,67,0.00,,,0.00,Wunderground v.1.15,2013-06-15 14:27:00,
2013-06-15 10:32:00,71.8,60.7,30.09,NE,49,2.0,4.0,68,0.00,,,0.00,Wunderground v.1.15,2013-06-15 14:32:00,
2013-06-15 10:38:00,71.9,61.2,30.09,ENE,57,0.0,5.0,69,0.00,,,0.00,Wunderground v.1.15,2013-06-15 14:38:00,
2013-06-15 10:43:00,72.5,61.3,30.09,NE,51,0.0,5.0,68,0.00,,,0.00,Wunderground v.1.15,2013-06-15 14:43:00,
2013-06-15 10:48:00,72.8,61.2,30.09,NE,40,0.0,6.0,67,0.00,,,0.00,Wunderground v.1.15,2013-06-15 14:48:00,
2013-06-15 10:53:00,73.0,61.4,30.09,NNE,29,4.0,5.0,67,0.00,,,0.00,Wunderground v.1.15,2013-06-15 14:53:00,
2013-06-15 10:58:00,73.1,61.5,30.09,NNE,28,0.0,6.0,67,0.00,,,0.00,Wunderground v.1.15,2013-06-15 14:58:00,
2013-06-15 11:03:00,73.6,60.7,30.09,ENE,63,5.0,6.0,64,0.00,,,0.00,Wunderground v.1.15,2013-06-15 15:03:00,
2013-06-15 11:08:00,74.0,61.5,30.09,NNE,24,4.0,6.0,65,0.00,,,0.00,Wunderground v.1.15,2013-06-15 15:08:00,
2013-06-15 11:13:00,74.2,60.8,30.09,ENE,59,1.0,7.0,63,0.00,,,0.00,Wunderground v.1.15,2013-06-15 15:13:00,
2013-06-15 11:18:00,74.5,59.7,30.09,NNE,31,3.0,7.0,60,0.00,,,0.00,Wunderground v.1.15,2013-06-15 15:18:00,
2013-06-15 11:23:00,74.6,61.2,30.09,NE,44,4.0,7.0,63,0.00,,,0.00,Wunderground v.1.15,2013-06-15 15:23:00,
2013-06-15 11:28:00,74.9,61.5,30.09,NE,55,4.0,7.0,63,0.00,,,0.00,Wunderground v.1.15,2013-06-15 15:28:00,
2013-06-15 11:33:00,75.1,60.7,30.09,NNE,17,3.0,8.0,61,0.00,,,0.00,Wunderground v.1.15,2013-06-15 15:33:00,
2013-06-15 11:38:00,74.9,60.1,30.09,NNE,23,1.0,8.0,60,0.00,,,0.00,Wunderground v.1.15,2013-06-15 15:38:00,
2013-06-15 11:43:00,74.3,60.4,30.09,NNE,20,0.0,3.0,62,0.00,,,0.00,Wunderground v.1.15,2013-06-15 15:43:00,
2013-06-15 11:48:00,74.1,60.7,30.09,NNW,341,0.0,4.0,63,0.00,,,0.00,Wunderground v.1.15,2013-06-15 15:48:00,
2013-06-15 11:53:00,74.2,61.2,30.09,SE,138,0.0,0.0,64,0.00,,,0.00,Wunderground v.1.15,2013-06-15 15:53:00,
2013-06-15 11:58:00,74.6,60.3,30.09,SE,138,0.0,1.0,61,0.00,,,0.00,Wunderground v.1.15,2013-06-15 15:58:00,
2013-06-15 12:03:00,76.0,60.6,30.09,SE,138,0.0,0.0,59,0.00,,,0.00,Wunderground v.1.15,2013-06-15 16:03:00,
2013-06-15 12:08:00,76.7,59.8,30.09,ENE,68,0.0,5.0,56,0.00,,,0.00,Wunderground v.1.15,2013-06-15 16:08:00,
2013-06-15 12:13:00,76.5,60.1,30.09,NE,41,0.0,1.0,57,0.00,,,0.00,Wunderground v.1.15,2013-06-15 16:13:00,
2013-06-15 12:18:00,77.2,62.2,30.10,North,9,0.0,3.0,60,0.00,,,0.00,Wunderground v.1.15,2013-06-15 16:18:00,
2013-06-15 12:23:00,77.4,61.5,30.09,North,9,0.0,0.0,58,0.00,,,0.00,Wunderground v.1.15,2013-06-15 16:23:00,
2013-06-15 12:28:00,77.2,62.2,30.09,North,9,0.0,1.0,60,0.00,,,0.00,Wunderground v.1.15,2013-06-15 16:28:00,
2013-06-15 12:33:00,76.7,62.7,30.09,North,9,0.0,0.0,62,0.00,,,0.00,Wunderground v.1.15,2013-06-15 16:33:00,
2013-06-15 12:38:00,76.3,62.8,30.09,West,261,0.0,0.0,63,0.00,,,0.00,Wunderground v.1.15,2013-06-15 16:38:00,
2013-06-15 12:43:00,76.7,59.8,30.09,SSW,197,0.0,0.0,56,0.00,,,0.00,Wunderground v.1.15,2013-06-15 16:43:00,
2013-06-15 12:48:00,77.7,61.7,30.09,ENE,58,2.0,2.0,58,0.00,,,0.00,Wunderground v.1.15,2013-06-15 16:48:00,
2013-06-15 12:53:00,78.6,61.1,30.08,NNE,22,3.0,6.0,55,0.00,,,0.00,Wunderground v.1.15,2013-06-15 16:53:00,
2013-06-15 12:58:00,78.2,59.1,30.09,NE,42,2.0,6.0,52,0.00,,,0.00,Wunderground v.1.15,2013-06-15 16:58:00,
2013-06-15 13:03:00,77.8,59.3,30.09,ENE,72,0.0,5.0,53,0.00,,,0.00,Wunderground v.1.15,2013-06-15 17:03:00,
2013-06-15 13:08:00,78.0,59.5,30.09,ENE,67,3.0,6.0,53,0.00,,,0.00,Wunderground v.1.15,2013-06-15 17:08:00,
2013-06-15 13:13:00,77.7,59.2,30.09,NNE,30,0.0,6.0,53,0.00,,,0.00,Wunderground v.1.15,2013-06-15 17:13:00,
2013-06-15 13:18:00,77.5,59.0,30.09,ENE,58,0.0,6.0,53,0.00,,,0.00,Wunderground v.1.15,2013-06-15 17:18:00,
2013-06-15 13:23:00,77.2,59.8,30.09,ENE,58,0.0,1.0,55,0.00,,,0.00,Wunderground v.1.15,2013-06-15 17:23:00,
2013-06-15 13:28:00,76.9,60.5,30.09,NE,51,0.0,1.0,57,0.00,,,0.00,Wunderground v.1.15,2013-06-15 17:28:00,
2013-06-15 13:33:00,76.7,60.8,30.09,SE,126,0.0,1.0,58,0.00,,,0.00,Wunderground v.1.15,2013-06-15 17:33:00,
2013-06-15 13:38:00,77.3,61.4,30.09,East,82,2.0,2.0,58,0.00,,,0.00,Wunderground v.1.15,2013-06-15 17:38:00,
2013-06-15 13:43:00,77.7,61.7,30.08,East,93,0.0,1.0,58,0.00,,,0.00,Wunderground v.1.15,2013-06-15 17:43:00,
2013-06-15 13:48:00,77.5,60.1,30.08,East,92,0.0,4.0,55,0.00,,,0.00,Wunderground v.1.15,2013-06-15 17:48:00,
2013-06-15 13:53:00,77.5,61.1,30.08,East,91,0.0,1.0,57,0.00,,,0.00,Wunderground v.1.15,2013-06-15 17:53:00,
2013-06-15 13:58:00,78.2,62.2,30.08,East,92,0.0,1.0,58,0.00,,,0.00,Wunderground v.1.15,2013-06-15 17:58:00,
2013-06-15 14:03:00,78.7,60.7,30.08,East,90,0.0,1.0,54,0.00,,,0.00,Wunderground v.1.15,2013-06-15 18:03:00,
2013-06-15 14:08:00,78.2,60.7,30.08,East,90,0.0,1.0,55,0.00,,,0.00,Wunderground v.1.15,2013-06-15 18:08:00,
2013-06-15 14:13:00,77.5,63.0,30.07,East,90,0.0,1.0,61,0.00,,,0.00,Wunderground v.1.15,2013-06-15 18:13:00,
2013-06-15 14:18:00,77.2,61.3,30.07,East,90,0.0,1.0,58,0.00,,,0.00,Wunderground v.1.15,2013-06-15 18:18:00,
2013-06-15 14:23:00,76.8,63.2,30.07,East,90,0.0,0.0,63,0.00,,,0.00,Wunderground v.1.15,2013-06-15 18:23:00,
2013-06-15 14:28:00,76.2,60.3,30.07,East,90,0.0,2.0,58,0.00,,,0.00,Wunderground v.1.15,2013-06-15 18:28:00,
2013-06-15 14:33:00,75.7,62.2,30.07,East,90,0.0,1.0,63,0.00,,,0.00,Wunderground v.1.15,2013-06-15 18:33:00,
2013-06-15 14:38:00,75.4,61.9,30.07,East,90,0.0,1.0,63,0.00,,,0.00,Wunderground v.1.15,2013-06-15 18:38:00,
2013-06-15 14:43:00,75.3,62.3,30.07,East,90,0.0,1.0,64,0.00,,,0.00,Wunderground v.1.15,2013-06-15 18:43:00,
2013-06-15 14:48:00,75.1,62.1,30.07,East,90,0.0,1.0,64,0.00,,,0.00,Wunderground v.1.15,2013-06-15 18:48:00,
2013-06-15 14:53:00,75.2,60.8,30.06,East,90,0.0,0.0,61,0.00,,,0.00,Wunderground v.1.15,2013-06-15 18:53:00,
2013-06-15 14:58:00,75.7,60.4,30.07,East,90,0.0,1.0,59,0.00,,,0.00,Wunderground v.1.15,2013-06-15 18:58:00,
2013-06-15 15:03:00,76.7,63.2,30.07,East,90,0.0,1.0,63,0.00,,,0.00,Wunderground v.1.15,2013-06-15 19:03:00,
2013-06-15 15:08:00,77.6,60.2,30.07,East,87,0.0,3.0,55,0.00,,,0.00,Wunderground v.1.15,2013-06-15 19:08:00,
2013-06-15 15:13:00,78.7,62.7,30.06,East,87,0.0,1.0,58,0.00,,,0.00,Wunderground v.1.15,2013-06-15 19:13:00,
2013-06-15 15:18:00,79.3,61.2,30.07,WNW,286,0.0,3.0,54,0.00,,,0.00,Wunderground v.1.15,2013-06-15 19:18:00,
2013-06-15 15:23:00,80.2,61.5,30.07,SW,232,1.0,4.0,53,0.00,,,0.00,Wunderground v.1.15,2013-06-15 19:23:00,
2013-06-15 15:28:00,80.6,61.3,30.07,SW,236,0.0,4.0,52,0.00,,,0.00,Wunderground v.1.15,2013-06-15 19:28:00,
2013-06-15 15:33:00,81.2,62.4,30.06,WSW,247,0.0,3.0,53,0.00,,,0.00,Wunderground v.1.15,2013-06-15 19:33:00,
2013-06-15 15:38:00,81.8,60.8,30.06,SW,215,0.0,3.0,49,0.00,,,0.00,Wunderground v.1.15,2013-06-15 19:38:00,
2013-06-15 15:43:00,82.0,63.2,30.06,SSW,212,0.0,1.0,53,0.00,,,0.00,Wunderground v.1.15,2013-06-15 19:43:00,
2013-06-15 15:48:00,82.2,61.7,30.06,SSW,213,0.0,3.0,50,0.00,,,0.00,Wunderground v.1.15,2013-06-15 19:48:00,
2013-06-15 15:53:00,82.3,61.2,30.06,SW,214,0.0,2.0,49,0.00,,,0.00,Wunderground v.1.15,2013-06-15 19:53:00,
2013-06-15 15:58:00,81.5,60.5,30.06,North,11,3.0,6.0,49,0.00,,,0.00,Wunderground v.1.15,2013-06-15 19:58:00,
2013-06-15 16:03:00,80.6,60.2,30.06,North,360,4.0,4.0,50,0.00,,,0.00,Wunderground v.1.15,2013-06-15 20:03:00,
2013-06-15 16:08:00,80.2,59.9,30.06,North,360,0.0,4.0,50,0.00,,,0.00,Wunderground v.1.15,2013-06-15 20:08:00,
2013-06-15 16:13:00,79.9,61.2,30.06,ENE,77,0.0,1.0,53,0.00,,,0.00,Wunderground v.1.15,2013-06-15 20:13:00,
2013-06-15 16:18:00,79.7,60.5,30.05,NNE,19,0.0,4.0,52,0.00,,,0.00,Wunderground v.1.15,2013-06-15 20:18:00,
2013-06-15 16:23:00,79.5,60.3,30.06,NNW,346,4.0,5.0,52,0.00,,,0.00,Wunderground v.1.15,2013-06-15 20:23:00,
2013-06-15 16:28:00,79.6,62.0,30.06,NW,312,0.0,5.0,55,0.00,,,0.00,Wunderground v.1.15,2013-06-15 20:28:00,
2013-06-15 16:34:00,79.9,60.7,30.05,WSW,256,0.0,5.0,52,0.00,,,0.00,Wunderground v.1.15,2013-06-15 20:34:00,
2013-06-15 16:39:00,80.6,61.3,30.06,WSW,254,0.0,5.0,52,0.00,,,0.00,Wunderground v.1.15,2013-06-15 20:39:00,
2013-06-15 16:44:00,81.0,60.0,30.05,WSW,257,0.0,2.0,49,0.00,,,0.00,Wunderground v.1.15,2013-06-15 20:44:00,
2013-06-15 16:49:00,81.3,63.1,30.05,West,274,0.0,3.0,54,0.00,,,0.00,Wunderground v.1.15,2013-06-15 20:49:00,
2013-06-15 16:54:00,81.6,62.8,30.05,SSW,209,1.0,6.0,53,0.00,,,0.00,Wunderground v.1.15,2013-06-15 20:54:00,
2013-06-15 16:59:00,81.8,60.8,30.04,SW,232,0.0,6.0,49,0.00,,,0.00,Wunderground v.1.15,2013-06-15 20:59:00,
2013-06-15 17:04:00,81.8,60.8,30.05,WNW,294,0.0,3.0,49,0.00,,,0.00,Wunderground v.1.15,2013-06-15 21:04:00,
2013-06-15 17:09:00,81.7,60.7,30.04,WSW,250,1.0,3.0,49,0.00,,,0.00,Wunderground v.1.15,2013-06-15 21:09:00,
2013-06-15 17:14:00,81.6,61.2,30.04,SSW,211,0.0,5.0,50,0.00,,,0.00,Wunderground v.1.15,2013-06-15 21:14:00,
2013-06-15 17:19:00,81.4,61.0,30.04,SSW,203,0.0,5.0,50,0.00,,,0.00,Wunderground v.1.15,2013-06-15 21:19:00,
2013-06-15 17:24:00,81.3,62.5,30.03,SSW,197,0.0,1.0,53,0.00,,,0.00,Wunderground v.1.15,2013-06-15 21:24:00,
2013-06-15 17:29:00,81.2,60.8,30.03,SSW,197,1.0,3.0,50,0.00,,,0.00,Wunderground v.1.15,2013-06-15 21:29:00,
2013-06-15 17:34:00,81.2,60.8,30.03,WNW,286,0.0,3.0,50,0.00,,,0.00,Wunderground v.1.15,2013-06-15 21:34:00,
2013-06-15 17:39:00,81.1,61.8,30.03,WNW,287,1.0,3.0,52,0.00,,,0.00,Wunderground v.1.15,2013-06-15 21:39:00,
2013-06-15 17:44:00,80.9,59.9,30.03,WNW,285,3.0,3.0,49,0.00,,,0.00,Wunderground v.1.15,2013-06-15 21:44:00,
2013-06-15 17:49:00,80.9,60.5,30.03,ENE,57,1.0,3.0,50,0.00,,,0.00,Wunderground v.1.15,2013-06-15 21:49:00,
2013-06-15 17:54:00,80.5,61.8,30.02,West,266,0.0,2.0,53,0.00,,,0.00,Wunderground v.1.15,2013-06-15 21:54:00,
2013-06-15 17:59:00,80.3,60.0,30.02,West,269,0.0,3.0,50,0.00,,,0.00,Wunderground v.1.15,2013-06-15 21:59:00,
2013-06-15 18:04:00,80.2,60.4,30.02,WNW,284,3.0,5.0,51,0.00,,,0.00,Wunderground v.1.15,2013-06-15 22:04:00,
2013-06-15 18:09:00,80.0,61.3,30.02,WNW,284,0.0,5.0,53,0.00,,,0.00,Wunderground v.1.15,2013-06-15 22:09:00,
2013-06-15 18:14:00,79.9,59.0,30.02,WNW,284,2.0,2.0,49,0.00,,,0.00,Wunderground v.1.15,2013-06-15 22:14:00,
2013-06-15 18:19:00,79.8,61.1,30.02,WNW,291,1.0,2.0,53,0.00,,,0.00,Wunderground v.1.15,2013-06-15 22:19:00,
2013-06-15 18:24:00,79.7,61.6,30.02,West,278,0.0,5.0,54,0.00,,,0.00,Wunderground v.1.15,2013-06-15 22:24:00,
2013-06-15 18:29:00,79.7,61.1,30.02,West,271,1.0,5.0,53,0.00,,,0.00,Wunderground v.1.15,2013-06-15 22:29:00,
2013-06-15 18:34:00,79.7,62.1,30.01,West,269,0.0,2.0,55,0.00,,,0.00,Wunderground v.1.15,2013-06-15 22:34:00,
2013-06-15 18:39:00,79.6,62.5,30.02,West,269,0.0,2.0,56,0.00,,,0.00,Wunderground v.1.15,2013-06-15 22:39:00,
2013-06-15 18:44:00,79.4,62.3,30.02,WNW,297,0.0,4.0,56,0.00,,,0.00,Wunderground v.1.15,2013-06-15 22:44:00,
2013-06-15 18:49:00,79.2,61.6,30.02,SW,225,1.0,4.0,55,0.00,,,0.00,Wunderground v.1.15,2013-06-15 22:49:00,
2013-06-15 18:54:00,79.1,62.6,30.02,West,265,0.0,5.0,57,0.00,,,0.00,Wunderground v.1.15,2013-06-15 22:54:00,
2013-06-15 18:59:00,79.0,63.9,30.02,West,265,1.0,5.0,60,0.00,,,0.00,Wunderground v.1.15,2013-06-15 22:59:00,
2013-06-15 19:04:00,78.8,63.3,30.03,SW,233,1.0,2.0,59,0.00,,,0.00,Wunderground v.1.15,2013-06-15 23:04:00,
2013-06-15 19:09:00,78.7,62.2,30.03,WSW,241,0.0,4.0,57,0.00,,,0.00,Wunderground v.1.15,2013-06-15 23:09:00,
2013-06-15 19:14:00,78.7,63.2,30.03,WSW,249,0.0,6.0,59,0.00,,,0.00,Wunderground v.1.15,2013-06-15 23:14:00,
2013-06-15 19:19:00,78.6,62.1,30.03,SW,216,0.0,6.0,57,0.00,,,0.00,Wunderground v.1.15,2013-06-15 23:19:00,
2013-06-15 19:24:00,78.3,62.8,30.03,SW,227,0.0,4.0,59,0.00,,,0.00,Wunderground v.1.15,2013-06-15 23:24:00,
2013-06-15 19:29:00,78.0,63.5,30.03,SW,227,0.0,4.0,61,0.00,,,0.00,Wunderground v.1.15,2013-06-15 23:29:00,
2013-06-15 19:35:00,77.5,63.5,30.03,SW,230,0.0,3.0,62,0.00,,,0.00,Wunderground v.1.15,2013-06-15 23:35:00,
2013-06-15 19:40:00,77.0,63.4,30.04,SW,230,0.0,0.0,63,0.00,,,0.00,Wunderground v.1.15,2013-06-15 23:40:00,
2013-06-15 19:45:00,76.5,62.5,30.04,SW,232,0.0,6.0,62,0.00,,,0.00,Wunderground v.1.15,2013-06-15 23:45:00,
2013-06-15 19:50:00,76.1,62.6,30.04,WNW,286,0.0,0.0,63,0.00,,,0.00,Wunderground v.1.15,2013-06-15 23:50:00,
2013-06-15 19:55:00,75.8,61.8,30.04,WSW,254,0.0,1.0,62,0.00,,,0.00,Wunderground v.1.15,2013-06-15 23:55:00,
2013-06-15 20:00:00,75.6,62.1,30.04,WNW,292,3.0,3.0,63,0.00,,,0.00,Wunderground v.1.15,2013-06-16 00:00:00,
2013-06-15 20:05:00,75.4,61.9,30.04,WSW,254,0.0,6.0,63,0.00,,,0.00,Wunderground v.1.15,2013-06-16 00:05:00,
2013-06-15 20:10:00,75.2,61.7,30.03,WSW,239,0.0,1.0,63,0.00,,,0.00,Wunderground v.1.15,2013-06-16 00:10:00,
2013-06-15 20:15:00,74.9,61.5,30.03,SW,229,0.0,4.0,63,0.00,,,0.00,Wunderground v.1.15,2013-06-16 00:15:00,
2013-06-15 20:20:00,74.5,62.0,30.03,SW,229,0.0,0.0,65,0.00,,,0.00,Wunderground v.1.15,2013-06-16 00:20:00,
2013-06-15 20:25:00,74.1,62.0,30.03,SW,229,0.0,1.0,66,0.00,,,0.00,Wunderground v.1.15,2013-06-16 00:25:00,
2013-06-15 20:30:00,73.7,62.1,30.03,SW,229,0.0,0.0,67,0.00,,,0.00,Wunderground v.1.15,2013-06-16 00:30:00,
2013-06-15 20:35:00,73.4,61.3,30.03,SW,232,0.0,3.0,66,0.00,,,0.00,Wunderground v.1.15,2013-06-16 00:35:00,
2013-06-15 20:40:00,73.1,61.5,30.02,SW,232,0.0,0.0,67,0.00,,,0.00,Wunderground v.1.15,2013-06-16 00:40:00,
2013-06-15 20:45:00,72.9,61.3,30.02,SW,232,0.0,0.0,67,0.00,,,0.00,Wunderground v.1.15,2013-06-16 00:45:00,
2013-06-15 20:50:00,72.6,61.4,30.03,SW,232,0.0,0.0,68,0.00,,,0.00,Wunderground v.1.15,2013-06-16 00:50:00,
2013-06-15 20:55:00,72.2,61.0,30.03,SW,232,0.0,0.0,68,0.00,,,0.00,Wunderground v.1.15,2013-06-16 00:55:00,
2013-06-15 21:00:00,71.9,61.2,30.03,SW,232,0.0,0.0,69,0.00,,,0.00,Wunderground v.1.15,2013-06-16 01:00:00,
2013-06-15 21:05:00,71.5,61.2,30.03,SW,232,0.0,1.0,70,0.00,,,0.00,Wunderground v.1.15,2013-06-16 01:05:00,
2013-06-15 21:10:00,71.1,61.2,30.04,SW,232,0.0,0.0,71,0.00,,,0.00,Wunderground v.1.15,2013-06-16 01:10:00,
2013-06-15 21:15:00,70.8,61.3,30.04,SW,232,0.0,0.0,72,0.00,,,0.00,Wunderground v.1.15,2013-06-16 01:15:00,
2013-06-15 21:20:00,70.6,61.5,30.04,SW,232,0.0,0.0,73,0.00,,,0.00,Wunderground v.1.15,2013-06-16 01:20:00,
2013-06-15 21:25:00,70.5,61.8,30.04,SW,232,0.0,0.0,74,0.00,,,0.00,Wunderground v.1.15,2013-06-16 01:25:00,
2013-06-15 21:30:00,70.3,61.2,30.05,SW,232,0.0,0.0,73,0.00,,,0.00,Wunderground v.1.15,2013-06-16 01:30:00,
2013-06-15 21:35:00,70.1,60.7,30.05,SW,232,0.0,0.0,72,0.00,,,0.00,Wunderground v.1.15,2013-06-16 01:35:00,
2013-06-15 21:40:00,70.0,60.2,30.05,SW,232,0.0,0.0,71,0.00,,,0.00,Wunderground v.1.15,2013-06-16 01:40:00,
2013-06-15 21:45:00,69.9,60.1,30.06,SW,232,0.0,0.0,71,0.00,,,0.00,Wunderground v.1.15,2013-06-16 01:45:00,
2013-06-15 21:50:00,69.8,60.4,30.06,SW,232,0.0,0.0,72,0.00,,,0.00,Wunderground v.1.15,2013-06-16 01:50:00,
2013-06-15 21:55:00,69.7,60.3,30.06,SW,232,0.0,0.0,72,0.00,,,0.00,Wunderground v.1.15,2013-06-16 01:55:00,
2013-06-15 22:00:00,69.6,60.6,30.07,SW,232,0.0,0.0,73,0.00,,,0.00,Wunderground v.1.15,2013-06-16 02:00:00,
2013-06-15 22:05:00,69.5,60.5,30.07,SW,232,0.0,0.0,73,0.00,,,0.00,Wunderground v.1.15,2013-06-16 02:05:00,
2013-06-15 22:10:00,69.3,60.7,30.07,SW,232,0.0,0.0,74,0.00,,,0.00,Wunderground v.1.15,2013-06-16 02:10:00,
2013-06-15 22:15:00,69.0,60.4,30.07,SW,232,0.0,0.0,74,0.00,,,0.00,Wunderground v.1.15,2013-06-16 02:15:00,
2013-06-15 22:20:00,68.9,60.3,30.07,SW,232,0.0,0.0,74,0.00,,,0.00,Wunderground v.1.15,2013-06-16 02:20:00,
2013-06-15 22:25:00,68.8,60.6,30.08,SW,232,0.0,0.0,75,0.00,,,0.00,Wunderground v.1.15,2013-06-16 02:25:00,
2013-06-15 22:31:00,68.5,60.3,30.08,SW,232,0.0,0.0,75,0.00,,,0.00,Wunderground v.1.15,2013-06-16 02:31:00,
2013-06-15 22:36:00,68.3,60.1,30.08,SW,232,0.0,0.0,75,0.00,,,0.00,Wunderground v.1.15,2013-06-16 02:36:00,
2013-06-15 22:40:00,68.1,59.5,30.08,SW,232,0.0,0.0,74,0.00,,,0.00,Wunderground v.1.15,2013-06-16 02:40:00,
2013-06-15 22:45:00,67.9,59.3,30.08,SW,232,0.0,0.0,74,0.00,,,0.00,Wunderground v.1.15,2013-06-16 02:45:00,
2013-06-15 22:50:00,67.8,59.6,30.09,SW,232,0.0,0.0,75,0.00,,,0.00,Wunderground v.1.15,2013-06-16 02:50:00,
2013-06-15 22:55:00,67.7,59.5,30.08,SW,232,0.0,0.0,75,0.00,,,0.00,Wunderground v.1.15,2013-06-16 02:55:00,
2013-06-15 23:00:00,67.7,59.9,30.08,SW,232,0.0,0.0,76,0.00,,,0.00,Wunderground v.1.15,2013-06-16 03:00:00,
2013-06-15 23:05:00,67.7,59.9,30.08,SW,232,0.0,0.0,76,0.00,,,0.00,Wunderground v.1.15,2013-06-16 03:05:00,
2013-06-15 23:10:00,67.6,59.8,30.08,SW,232,0.0,0.0,76,0.00,,,0.00,Wunderground v.1.15,2013-06-16 03:10:00,
2013-06-15 23:15:00,67.6,59.8,30.08,SW,232,0.0,0.0,76,0.00,,,0.00,Wunderground v.1.15,2013-06-16 03:15:00,
2013-06-15 23:20:00,67.6,59.8,30.08,SW,232,0.0,0.0,76,0.00,,,0.00,Wunderground v.1.15,2013-06-16 03:20:00,
2013-06-15 23:25:00,67.5,59.7,30.08,SW,232,0.0,0.0,76,0.00,,,0.00,Wunderground v.1.15,2013-06-16 03:25:00,
2013-06-15 23:30:00,67.4,59.6,30.08,SW,232,0.0,0.0,76,0.00,,,0.00,Wunderground v.1.15,2013-06-16 03:30:00,
2013-06-15 23:35:00,67.3,59.5,30.08,SW,232,0.0,0.0,76,0.00,,,0.00,Wunderground v.1.15,2013-06-16 03:35:00,
2013-06-15 23:40:00,67.1,59.3,30.08,SW,232,0.0,0.0,76,0.00,,,0.00,Wunderground v.1.15,2013-06-16 03:40:00,
2013-06-15 23:45:00,66.8,59.0,30.08,SW,232,0.0,0.0,76,0.00,,,0.00,Wunderground v.1.15,2013-06-16 03:45:00,
2013-06-15 23:50:00,66.7,59.3,30.09,SW,232,0.0,0.0,77,0.00,,,0.00,Wunderground v.1.15,2013-06-16 03:50:00,
2013-06-15 23:55:00,66.5,59.4,30.09,SW,232,0.0,0.0,78,0.00,,,0.00,Wunderground v.1.15,2013-06-16 03:55:00,